Weather History for Orlando, FL

Change the Weather History Date:

Sunday, February 16, 2014

  Actual Average Record
Temperature  
Mean Temperature 58 °F -  
Max Temperature 70 °F 72 °F 84 °F (2001)
Min Temperature 45 °F 53 °F 42 °F (2007)
Degree Days  
Heating Degree Days 8    
Growing Degree Days 8 (Base 50)    
Moisture  
Dew Point 36 °F    
Average Humidity 52    
Maximum Humidity 90    
Minimum Humidity 14    
Precipitation  
Precipitation 0.00 in - - ()
Sea Level Pressure  
Sea Level Pressure 30.18 in    
Wind  
Wind Speed 3 mph (NW)    
Max Wind Speed 8 mph    
Max Gust Speed -    
Visibility 10 miles    
Events      
Averages and records for this station are not official NWS values.
T = Trace of Precipitation, MM = Missing Value Source: NWS Daily Summary

Daily Weather History Graph

Daily Weather History Graph

Search for Another Location

Airport:

Trip Planner

Search our weather history database for the weather conditions in past years. The results will help you decide how hot, cold, wet, or windy it might be!

Date:

Astronomy

Feb. 16, 2014 Rise Set
Actual Time 7:02 AM EST 6:16 PM EST
Civil Twilight 6:38 AM EST 6:40 PM EST
Nautical Twilight 6:10 AM EST 7:08 PM EST
Astronomical Twilight 5:43 AM EST 7:35 PM EST
Moon 7:58 PM EST (2/16) 7:42 AM EST (2/16)
Length of Visible Light 12h 01m
Length of Day
11h 13m
Full, 97% of the Moon is Illuminated
Feb 16
Full
Feb 22
Last Quarter
Mar 1
New
Mar 8
First Quarter
Mar 16
Full

Hourly Weather History & Observations

Time (EST) Temp. Dew Point Humidity Pressure Visibility Wind Dir Wind Speed Gust Speed Precip Events Conditions
12:53 AM 50.0 °F 42.1 °F 74% 30.15 in 10.0 mi Calm Calm - N/A   Clear
1:53 AM 48.9 °F 42.1 °F 77% 30.14 in 10.0 mi NNW 5.8 mph - N/A   Clear
2:53 AM 48.9 °F 43.0 °F 80% 30.15 in 10.0 mi NNW 6.9 mph - N/A   Clear
3:53 AM 48.9 °F 43.0 °F 80% 30.15 in 10.0 mi North 8.1 mph - N/A   Clear
4:53 AM 46.9 °F 42.1 °F 83% 30.15 in 10.0 mi Calm Calm - N/A   Clear
5:53 AM 46.0 °F 41.0 °F 83% 30.16 in 10.0 mi Calm Calm - N/A   Clear
6:53 AM 45.0 °F 41.0 °F 86% 30.17 in 10.0 mi Calm Calm - N/A   Clear
7:53 AM 46.9 °F 44.1 °F 90% 30.19 in 10.0 mi Calm Calm - N/A   Clear
8:53 AM 54.0 °F 41.0 °F 62% 30.21 in 10.0 mi Calm Calm - N/A   Clear
9:53 AM 57.9 °F 37.0 °F 46% 30.22 in 10.0 mi Calm Calm - N/A   Clear
10:53 AM 63.0 °F 37.0 °F 38% 30.24 in 10.0 mi North 5.8 mph - N/A   Clear
11:53 AM 66.0 °F 35.1 °F 32% 30.22 in 10.0 mi NNW 6.9 mph - N/A   Clear
12:53 PM 68.0 °F 35.1 °F 30% 30.20 in 10.0 mi Calm Calm - N/A   Clear
1:53 PM 69.1 °F 30.9 °F 24% 30.17 in 10.0 mi Calm Calm - N/A   Clear
2:53 PM 70.0 °F 28.0 °F 21% 30.15 in 10.0 mi WSW 6.9 mph - N/A   Clear
3:53 PM 70.0 °F 23.0 °F 17% 30.15 in 10.0 mi West 6.9 mph - N/A   Clear
4:53 PM 69.1 °F 21.9 °F 17% 30.16 in 10.0 mi SW 4.6 mph - N/A   Clear
5:53 PM 68.0 °F 17.1 °F 14% 30.17 in 10.0 mi Calm Calm - N/A   Clear
6:53 PM 64.9 °F 25.0 °F 22% 30.19 in 10.0 mi Calm Calm - N/A   Clear
7:53 PM 59.0 °F 34.0 °F 39% 30.20 in 10.0 mi East 4.6 mph - N/A   Clear
8:53 PM 57.9 °F 41.0 °F 53% 30.21 in 10.0 mi East 3.5 mph - N/A   Clear
9:53 PM 57.0 °F 42.1 °F 57% 30.22 in 10.0 mi Calm Calm - N/A   Clear
10:53 PM 55.0 °F 41.0 °F 59% 30.23 in 10.0 mi WSW 3.5 mph - N/A   Clear
11:53 PM 54.0 °F 39.0 °F 57% 30.22 in 10.0 mi West 3.5 mph - N/A   Clear